Osijek - Cepin, Croatia

9:40 PM CEST on May 21, 2018 (GMT +0200)
Osijek - Cepin

Weather History for LDOS - October, 2012

Change the Weather History Date:

Tuesday, October 16, 2012

  Actual Average Record
Temperature  
Mean Temperature 56 °F -  
Max Temperature 68 °F - - ()
Min Temperature 44 °F - - ()
Degree Days  
Heating Degree Days 9    
Growing Degree Days 6 (Base 50)    
Moisture  
Dew Point 55 °F    
Average Humidity 91    
Maximum Humidity 94    
Minimum Humidity 82    
Precipitation  
Precipitation 0.00 in - - ()
Sea Level Pressure  
Sea Level Pressure 29.82 in    
Wind  
Wind Speed 9 mph ()    
Max Wind Speed 24 mph    
Max Gust Speed -    
Visibility 6.2 miles    
Events Rain    
T = Trace of Precipitation, MM = Missing Value Source: Averaged Metar Reports

Daily Weather History Graph

Daily Weather History Graph

Search for Another Location

Airport or City:

Astronomy

Oct. 16, 2012 Rise Set
Actual Time 7:03 AM CEST 5:57 PM CEST
Civil Twilight 6:33 AM CEST 6:27 PM CEST
Nautical Twilight 5:59 AM CEST 7:02 PM CEST
Astronomical Twilight 5:24 AM CEST 7:36 PM CEST
Moon 8:09 AM CEST (10/16) 6:21 PM CEST (10/16)
Length of Visible Light 11h 54m
Length of Day
10h 54m
New Moon, 1% of the Moon is Illuminated
Oct 16
New Moon
Oct 22
First Quarter
Oct 29
Full
Nov 7
Last Quarter
Nov 13
New

Hourly Weather History & Observations

Time (CEST) Temp. Windchill Dew Point Humidity Pressure Visibility Wind Dir Wind Speed Gust Speed Precip Events Conditions
12:00 AM 60.8 °F - 59.0 °F 94% 29.80 in - SE 6.9 mph - N/A   Clear
12:30 AM 60.8 °F - 59.0 °F 94% 29.80 in - ESE 6.9 mph - N/A   Clear
1:00 AM 60.8 °F - 57.2 °F 88% 29.80 in - ESE 6.9 mph - N/A   Clear
1:30 AM 60.8 °F - 57.2 °F 88% 29.80 in - East 9.2 mph - N/A   Clear
2:00 AM 60.8 °F - 57.2 °F 88% 29.80 in - ESE 8.1 mph - N/A   Clear
2:30 AM 60.8 °F - 57.2 °F 88% 29.77 in - ESE 9.2 mph - N/A   Clear
3:00 AM 59.0 °F - 55.4 °F 88% 29.77 in - ESE 8.1 mph - N/A   Clear
3:30 AM 57.2 °F - 55.4 °F 94% 29.74 in - ESE 9.2 mph - N/A   Clear
4:00 AM 57.2 °F - 55.4 °F 94% 29.74 in - SE 11.5 mph - N/A   Clear
4:30 AM 60.8 °F - 59.0 °F 94% 29.74 in 6.2 mi SE 12.7 mph - N/A Rain Light Rain
5:00 AM 62.6 °F - 59.0 °F 88% 29.74 in 6.2 mi SE 15.0 mph - N/A Rain Light Rain
5:30 AM 62.6 °F - 57.2 °F 82% 29.74 in 6.2 mi SE 11.5 mph - N/A   Scattered Clouds
6:00 AM 62.6 °F - 59.0 °F 88% 29.71 in 6.2 mi East 11.5 mph - N/A   Partly Cloudy
6:30 AM 62.6 °F - 59.0 °F 88% 29.71 in 6.2 mi East 6.9 mph - N/A   Scattered Clouds
7:00 AM 60.8 °F - 57.2 °F 88% 29.68 in 6.2 mi East 11.5 mph - N/A   Scattered Clouds
7:30 AM 60.8 °F - 59.0 °F 94% 29.71 in 6.2 mi SE 11.5 mph - N/A Rain Light Rain
8:00 AM 62.6 °F - 59.0 °F 88% 29.71 in 6.2 mi SE 8.1 mph - N/A Rain Rain
8:30 AM 62.6 °F - 59.0 °F 88% 29.71 in 6.2 mi Calm Calm - N/A Rain Rain
9:00 AM 60.8 °F - 59.0 °F 94% 29.71 in 6.2 mi North 5.8 mph - N/A Rain Light Rain
9:30 AM 60.8 °F - 59.0 °F 94% 29.71 in 6.2 mi NNE 3.5 mph - N/A Rain Light Rain
10:00 AM 60.8 °F - 59.0 °F 94% 29.71 in 6.2 mi NNE 2.3 mph - N/A Rain Light Rain
10:30 AM 60.8 °F - 59.0 °F 94% 29.71 in 6.2 mi NNW 5.8 mph - N/A Rain Light Rain
11:00 AM 62.6 °F - 60.8 °F 94% 29.71 in 6.2 mi ENE 3.5 mph - N/A Rain Light Rain
11:30 AM 62.6 °F - 60.8 °F 94% 29.71 in 6.2 mi SE 4.6 mph - N/A   Mostly Cloudy
12:00 PM 64.4 °F - 60.8 °F 88% 29.74 in 6.2 mi SSE 9.2 mph - N/A Rain Light Rain
12:30 PM 64.4 °F - 60.8 °F 88% 29.74 in 6.2 mi SSE 10.4 mph - N/A Rain Light Rain
1:00 PM 68.0 °F - 64.4 °F 88% 29.74 in 6.2 mi SSW 15.0 mph - N/A Rain Rain
1:30 PM 68.0 °F - 64.4 °F 88% 29.80 in 6.2 mi WNW 24.2 mph - N/A   Mostly Cloudy
2:00 PM 57.2 °F - 55.4 °F 94% 29.80 in 6.2 mi West 21.9 mph - N/A   Mostly Cloudy
2:30 PM 57.2 °F - 55.4 °F 94% 29.83 in 6.2 mi WNW 21.9 mph - N/A   Mostly Cloudy
3:00 PM 57.2 °F - 53.6 °F 88% 29.83 in 6.2 mi WNW 20.7 mph - N/A   Scattered Clouds
3:30 PM 57.2 °F - 53.6 °F 88% 29.83 in 6.2 mi WNW 21.9 mph - N/A   Scattered Clouds
4:00 PM 55.4 °F - 51.8 °F 88% 29.86 in 6.2 mi WNW 17.3 mph - N/A   Partly Cloudy
4:30 PM 55.4 °F - 51.8 °F 88% 29.86 in 6.2 mi WNW 20.7 mph - N/A   Partly Cloudy
5:00 PM 53.6 °F - 50.0 °F 88% 29.89 in 6.2 mi WNW 15.0 mph - N/A   Mostly Cloudy
5:30 PM 53.6 °F - 50.0 °F 88% 29.92 in 6.2 mi WNW 19.6 mph - N/A   Mostly Cloudy
6:00 PM 51.8 °F - 50.0 °F 94% 29.92 in 6.2 mi WNW 19.6 mph - N/A   Scattered Clouds
6:30 PM 51.8 °F - 50.0 °F 94% 29.95 in 6.2 mi WNW 23.0 mph - N/A   Mostly Cloudy
7:00 PM 50.0 °F - 48.2 °F 94% 29.95 in 6.2 mi WNW 12.7 mph - N/A   Mostly Cloudy
7:30 PM 50.0 °F - 48.2 °F 94% 29.98 in 6.2 mi WNW 10.4 mph - N/A   Mostly Cloudy
8:00 PM 50.0 °F - 48.2 °F 94% 29.98 in 6.2 mi WNW 6.9 mph - N/A   Scattered Clouds
8:30 PM 50.0 °F - 48.2 °F 94% 30.01 in - West 8.1 mph - N/A   Clear
9:00 PM 48.2 °F - 46.4 °F 93% 30.01 in - WSW 8.1 mph - N/A   Clear
9:30 PM 48.2 °F - 46.4 °F 93% 30.01 in - WSW 5.8 mph - N/A   Clear
10:00 PM 46.4 °F 44.3 °F 44.6 °F 93% 30.04 in - SW 4.6 mph - N/A   Clear
10:30 PM 46.4 °F 43.5 °F 44.6 °F 93% 30.04 in - SW 5.8 mph - N/A   Clear
11:00 PM 44.6 °F 42.2 °F 42.8 °F 93% 30.06 in - SSW 4.6 mph - N/A   Clear
11:30 PM 44.6 °F 42.2 °F 42.8 °F 93% 30.06 in - South 4.6 mph - N/A   Clear